Temp
20 21 22 23 21 22 23 26 29 30 30 29 29 26 28 27 25 24 26 25 23 21 20 21 20 20 20 20 20 20 20 19 19 18 18 18 18 18 18 18 18 19 18 18 17 17 17 17 17
19 22 23 21 21 22 24 27 28 29 28 29 27 28 27 25 27 26 27 25 23 21 20 20 20 20 20 20 20 19 19 19 19 19 18 18 18 18 17 18 17 18 18 17 17 17 17 17 18
19 22 21 21 22 23 25 27 27 28 28 29 29 26 28 26 27 27 27 25 23 21 21 20 20 20 20 21 19 19 19 19 19 19 18 18 17 17 17 17 17 17 16 16 16 16 17 17 18
20 23 22 22 23 24 26 28 28 27 29 28 30 25 25 25 28 27 26 26 23 22 22 21 20 20 20 20 20 19 19 19 19 19 18 18 17 17 17 16 16 16 17 16 16 16 17 17 18
21 22 20 22 23 26 27 26 27 27 27 28 29 25 23 25 25 26 26 26 24 23 22 21 20 20 20 20 20 20 20 20 20 19 18 18 18 18 18 18 17 16 16 17 18 18 18 18 18
18 21 21 22 23 26 25 25 27 27 28 27 28 24 22 22 25 26 27 26 25 23 21 21 20 20 20 20 19 19 20 20 20 19 19 18 19 19 18 18 17 17 17 17 17 18 18 18 18
18 19 20 22 24 25 25 26 26 27 27 25 25 23 22 21 22 25 26 27 23 22 21 20 20 20 20 19 19 19 19 19 19 19 19 19 19 19 18 18 18 17 18 18 18 18 18 18 18
18 18 20 23 25 24 25 26 25 23 24 26 25 23 21 20 21 21 23 24 23 22 21 20 20 20 19 19 19 19 19 19 19 19 18 18 19 19 18 18 18 18 18 18 18 18 18 18 18
18 17 19 22 24 24 25 23 24 24 23 24 24 21 22 20 21 21 22 22 22 22 22 21 20 20 20 19 19 19 19 19 19 19 19 19 19 18 18 17 18 18 18 18 18 18 18 19 19
17 17 20 23 21 22 25 24 23 24 23 23 23 21 21 19 20 20 21 21 22 22 22 21 21 21 20 20 19 19 19 19 19 19 19 19 19 18 18 18 18 18 18 19 19 19 19 19 19
17 18 21 23 20 20 23 25 24 24 23 23 22 20 20 20 19 19 21 21 21 22 22 22 21 21 21 20 20 20 20 19 19 19 20 20 20 20 19 19 19 19 19 18 19 19 19 19 19
15 18 19 20 20 19 21 25 24 24 22 23 22 21 20 20 19 20 20 21 21 22 22 21 21 21 22 21 21 21 21 21 21 20 21 21 21 20 20 20 20 19 19 19 19 19 19 19 19
15 16 19 18 20 19 20 21 24 21 22 22 23 22 20 19 20 19 20 21 22 21 22 21 21 21 21 21 22 22 22 22 22 21 21 21 21 21 21 20 20 20 20 20 20 20 20 20 20
16 15 16 17 20 20 21 22 23 22 22 22 23 22 21 20 20 20 20 20 21 21 22 22 21 21 21 21 22 22 23 22 22 21 21 21 21 21 21 20 20 20 20 20 20 20 20 20 20
16 15 16 16 18 21 21 21 21 22 22 22 22 22 21 21 22 21 20 21 21 21 21 21 21 21 21 21 21 22 22 22 22 21 21 20 20 20 20 20 20 20 20 20 20 20 20 20 20
17 15 15 16 19 19 20 18 21 22 22 22 21 21 21 21 22 22 22 22 22 21 20 20 20 20 20 21 21 21 22 22 22 21 21 20 20 20 20 20 20 20 20 19 19 19 19 19 20
18 16 15 16 16 19 19 19 22 23 22 21 21 22 21 21 22 23 22 22 22 21 21 20 19 19 19 20 20 21 21 21 22 22 21 21 20 20 20 20 20 20 20 19 19 19 19 19 19
16 18 19 17 17 18 17 18 20 23 22 22 22 21 22 21 21 23 22 22 22 23 22 21 20 19 19 19 20 21 21 21 22 22 22 21 21 20 20 20 20 20 20 19 19 19 19 19 19
19 19 19 20 19 18 19 20 20 21 20 19 20 20 21 22 22 22 21 22 22 22 22 21 21 20 20 20 20 20 20 21 21 21 21 21 21 21 20 20 20 20 20 20 19 19 19 19 19
18 18 18 18 19 18 19 19 20 21 21 20 19 20 21 22 21 20 21 21 21 21 21 21 21 21 20 20 19 20 20 20 21 21 21 21 20 20 20 19 19 19 20 19 19 19 19 19 19
18 17 18 18 19 19 19 17 19 21 21 21 21 21 21 21 22 19 19 21 21 20 20 20 21 20 21 20 20 20 20 20 20 20 20 20 19 19 19 19 18 18 19 18 18 18 18 18 18
17 20 17 17 18 16 18 15 19 20 20 21 20 19 20 20 20 20 19 20 20 20 20 19 19 19 20 20 20 21 21 21 21 20 20 20 19 18 18 17 17 17 17 17 17 17 17 16 17
17 19 18 17 17 16 17 15 17 21 19 20 20 20 19 19 19 20 19 19 20 19 19 19 19 18 18 18 19 19 19 19 20 19 19 18 17 17 17 16 15 15 14 14 15 15 16 16 16
18 17 18 18 16 12 15 16 16 18 20 22 20 20 20 20 19 20 20 20 19 18 18 17 17 17 17 17 17 17 18 18 17 17 17 17 16 15 16 15 14 14 14 13 13 13 13 14 15
16 15 13 13 13 12 18 16 17 20 22 22 21 20 20 19 18 19 17 18 18 17 16 16 16 16 16 16 16 17 18 17 17 16 16 15 15 14 13 13 13 12 12 12 12 12 13 13 14
15 15 14 14 13 14 17 15 17 21 21 20 20 21 20 19 18 18 17 19 18 17 16 15 15 15 15 15 16 16 16 16 15 15 14 14 14 13 12 12 12 12 12 12 12 11 11 12 12
14 13 16 13 15 12 15 17 19 19 20 21 21 21 19 19 19 20 17 19 17 16 16 15 15 15 14 14 14 14 14 14 14 14 13 12 12 12 11 11 11 11 11 11 11 11 11 10 11
14 15 14 11 11 15 16 17 17 20 19 19 19 18 19 20 20 17 16 17 17 16 15 15 15 14 14 13 13 13 13 13 13 12 11 11 11 11 10 10 10 9 9 9 10 10 10 9 10
12 12 13 14 14 11 14 16 17 18 17 17 16 17 16 17 17 16 14 16 16 16 15 15 15 14 13 13 12 13 13 12 10 11 11 11 10 9 9 9 8 8 8 8 9 8 9 9 8
15 14 13 12 14 13 11 14 20 17 17 18 16 16 16 16 15 15 14 15 14 14 14 14 13 13 12 12 12 11 10 10 10 10 9 9 8 8 8 7 7 7 7 7 7 7 7 7 7
Height
782 783 783 786 805 797 799 782 756 755 756 750 750 764 767 765 784 799 778 781 785 793 800 805 810 813 817 820 822 825 826 827 829 831 832 834 834 835 836 837 839 840 842 843 844 845 845 846 847
781 781 784 784 802 807 793 765 767 757 755 751 757 761 766 784 771 772 778 782 789 795 801 805 811 814 817 821 823 825 827 829 831 833 835 836 837 838 839 840 841 843 844 845 846 847 847 847 849
779 778 784 789 793 797 786 761 761 756 755 758 760 763 764 780 775 775 780 786 791 797 803 807 812 815 818 822 824 825 827 829 832 834 836 838 839 840 841 842 843 845 846 846 848 849 850 850 851
778 777 779 787 786 774 766 753 753 760 758 759 756 774 773 777 775 779 783 788 793 799 804 809 812 816 819 823 825 827 828 830 833 836 838 840 841 842 843 843 845 847 848 848 850 851 851 852 853
774 772 787 784 779 764 756 755 757 764 763 763 758 777 782 779 781 781 786 790 794 799 804 810 814 817 821 824 826 828 830 831 834 838 839 841 843 844 845 846 847 849 850 850 851 853 853 854 856
778 772 785 784 775 758 758 760 762 762 759 764 766 774 787 785 783 786 789 792 795 799 805 811 815 819 823 825 827 829 831 833 835 839 841 843 844 845 847 848 850 851 851 852 853 855 856 856 857
779 777 779 773 770 762 764 759 765 764 765 771 765 778 789 787 786 787 791 794 795 801 806 812 817 821 824 827 829 830 832 834 836 839 842 844 846 846 848 850 851 852 852 854 855 856 858 858 859
774 778 778 767 765 768 760 763 763 771 775 766 767 781 792 789 790 790 791 794 797 803 807 814 818 823 826 828 831 832 833 835 836 839 843 846 847 848 849 851 852 853 853 855 856 857 858 859 860
770 784 782 771 764 768 758 771 768 768 774 774 774 780 786 789 791 793 794 796 802 804 810 815 819 823 827 829 832 834 834 836 838 840 842 846 848 848 851 851 852 853 854 855 857 858 859 859 860
776 781 771 756 766 765 761 769 772 775 780 779 781 785 787 789 793 796 796 798 802 805 811 815 819 822 826 829 832 834 836 838 839 841 842 844 847 849 851 852 853 854 854 855 857 858 859 860 860
773 776 761 758 764 767 766 767 767 774 783 779 785 786 789 791 794 798 800 801 804 807 812 815 818 821 826 829 832 834 836 838 840 841 842 844 847 848 850 851 853 854 854 855 856 857 858 859 860
784 774 767 771 770 776 775 764 771 769 778 778 780 783 788 791 794 797 800 803 804 808 811 815 819 822 824 828 830 833 835 837 840 841 842 845 846 848 849 850 851 853 854 854 856 856 857 859 859
788 783 774 779 775 778 778 775 771 778 776 778 778 781 788 792 794 797 799 802 805 808 811 814 817 821 824 826 829 831 833 836 839 841 843 844 846 847 849 851 851 853 854 855 856 857 858 858 858
781 787 788 784 775 775 778 778 774 776 777 781 780 783 785 790 792 797 799 801 804 807 809 813 817 821 823 825 828 830 832 834 837 839 842 844 845 847 848 849 851 852 853 854 855 856 857 857 858
777 794 794 791 787 778 774 783 782 772 775 781 782 782 784 789 789 793 796 798 801 805 808 811 816 820 823 825 827 829 831 833 836 837 840 843 845 846 847 849 849 851 852 853 854 855 855 856 856
775 789 796 786 780 781 786 794 776 772 778 781 781 783 784 786 788 790 792 796 798 802 807 811 814 818 821 823 825 827 830 832 834 836 838 840 843 845 846 848 849 850 851 852 852 852 853 854 854
773 788 799 798 791 784 789 790 772 769 775 779 779 778 781 783 786 789 791 793 795 799 802 808 812 815 818 821 823 826 828 831 832 834 835 838 841 842 844 845 847 848 849 850 851 851 851 852 852
783 783 778 787 790 786 795 789 775 767 771 773 776 777 777 778 781 785 790 791 793 796 799 804 808 811 813 817 821 823 825 827 829 830 833 835 838 840 842 844 845 846 847 847 849 849 850 850 850
766 772 771 771 775 788 784 778 780 772 775 779 779 778 776 774 775 779 786 790 790 793 796 799 803 807 811 813 815 818 820 823 826 829 830 833 835 837 839 841 842 844 845 845 846 847 847 848 848
772 774 776 778 778 785 777 779 775 769 768 772 776 776 774 771 772 776 781 787 787 789 792 796 798 802 806 808 810 814 817 821 823 825 827 830 832 835 837 839 840 841 842 843 844 844 845 845 846
771 777 775 779 776 775 778 785 776 765 764 763 764 766 768 769 770 775 776 781 784 785 789 792 795 799 801 804 806 811 815 819 821 822 825 829 830 832 833 835 837 838 839 840 841 841 842 842 843
779 762 774 778 781 794 777 803 773 764 762 761 762 763 766 767 765 772 775 774 779 782 782 788 792 796 799 799 802 807 810 812 818 819 823 825 828 828 830 833 834 835 836 836 837 838 838 839 839
775 763 774 780 784 787 785 800 778 753 764 759 757 759 761 763 764 765 769 770 773 779 782 782 787 794 796 797 798 802 807 812 813 815 818 824 826 826 826 829 831 832 832 833 833 834 835 835 836
770 775 775 781 790 813 790 791 782 765 754 747 749 751 753 756 758 761 766 769 772 776 781 783 785 788 793 796 797 799 804 809 812 814 816 818 823 827 823 827 828 829 829 829 830 830 831 832 832
779 785 804 812 809 812 772 785 772 749 745 743 748 749 748 748 753 758 765 767 770 775 781 783 785 789 789 797 797 793 802 806 809 811 812 818 822 821 822 825 826 827 826 827 827 827 828 829 828
783 785 794 799 803 793 774 787 770 744 742 744 743 745 748 751 752 753 760 763 767 773 778 782 786 788 793 795 794 796 800 804 806 809 812 814 817 818 820 822 824 825 825 824 825 825 825 825 825
783 792 777 801 787 801 783 768 753 746 745 745 746 747 752 753 754 754 758 762 765 769 773 781 785 787 792 795 796 793 796 801 805 807 811 813 814 816 819 821 821 822 822 822 822 823 823 823 823
782 779 793 807 814 791 777 771 768 747 750 750 751 754 754 753 754 757 759 763 766 768 773 777 785 784 790 794 795 794 796 799 802 807 809 810 812 814 816 817 819 820 820 820 820 820 820 820 821
786 790 791 784 787 804 791 775 756 748 753 755 759 759 759 759 759 760 762 764 767 769 772 772 779 785 787 790 796 791 794 803 807 805 805 807 811 813 813 815 816 816 816 817 817 818 818 818 818
771 778 785 790 786 786 800 785 745 752 753 753 760 760 761 762 763 762 761 764 767 769 771 771 773 784 790 791 784 795 803 804 802 801 805 807 809 810 812 813 813 813 814 814 815 815 816 817 816
Wind_Speed
9 5 4 3 2 3 8 7 7 4 2 5 7 6 8 14 7 9 31 25 36 31 28 26 22 21 18 16 16 13 14 13 17 16 17 18 17 18 17 17 18 18 17 17 17 17 17 17 17
9 10 4 3 3 5 7 15 3 2 9 8 6 4 7 6 4 11 13 31 31 31 28 26 23 20 19 15 16 15 15 15 16 15 17 17 17 17 17 18 18 17 17 16 16 15 16 17 16
11 14 3 4 4 10 7 12 7 4 8 3 4 1 1 5 6 11 25 30 33 29 27 24 22 20 19 15 15 14 14 14 16 15 15 17 16 16 16 17 17 17 17 17 16 15 15 16 16
8 3 3 6 10 14 10 6 8 6 2 6 5 10 6 15 4 17 29 29 31 27 25 24 22 20 19 15 14 15 14 14 16 16 15 14 15 16 16 16 17 17 17 17 15 16 15 15 16
15 3 6 8 14 12 2 12 6 7 7 3 2 6 6 11 10 20 26 27 27 27 26 25 21 19 18 16 16 16 13 14 17 16 15 15 13 15 15 16 16 15 15 15 15 15 14 14 14
4 6 6 11 14 14 7 9 1 4 5 5 2 6 4 7 7 16 23 23 27 28 25 23 20 19 18 17 17 14 11 15 17 17 15 14 13 12 14 14 14 14 14 14 13 13 13 13 11
6 7 11 14 14 6 11 7 4 2 4 6 9 6 4 6 6 11 19 22 28 28 22 21 20 18 17 17 17 11 11 15 17 16 14 14 10 10 11 13 12 12 12 11 11 10 9 9 8
4 2 12 13 14 7 8 5 7 8 4 3 7 4 6 3 7 8 8 16 30 26 21 19 19 17 16 16 15 11 12 15 17 17 14 14 11 8 10 10 10 10 10 8 8 7 6 6 6
2 4 9 16 8 9 11 5 2 1 7 9 7 8 10 14 12 10 8 10 22 26 23 21 18 17 14 15 13 10 12 15 15 13 14 13 9 10 9 8 7 7 7 7 5 4 3 3 3
5 4 8 12 7 15 11 10 7 6 6 6 9 12 13 15 16 11 5 6 7 24 21 22 21 21 18 14 12 7 10 14 14 15 15 15 8 9 8 6 4 4 5 4 3 3 2 2 1
3 5 10 2 13 12 1 10 9 10 7 8 6 12 6 15 14 12 9 9 7 21 21 14 21 20 19 17 13 12 9 11 14 13 12 11 13 11 8 2 4 3 2 3 2 3 4 3 2
2 11 10 7 6 1 4 3 5 3 7 9 7 13 7 9 10 14 15 15 15 13 17 19 20 21 20 17 16 17 10 14 15 16 9 12 10 6 8 7 3 2 1 3 1 3 1 3 5
9 7 8 8 7 6 11 5 5 10 9 8 6 11 10 7 9 11 11 21 20 14 16 18 18 20 19 18 18 15 15 14 11 12 12 10 10 9 9 8 8 7 6 6 6 4 5 4 5
12 9 13 7 4 5 7 7 1 13 9 7 5 8 9 10 12 9 11 17 18 22 18 21 17 17 20 19 18 12 16 15 14 13 13 11 10 9 10 9 8 8 8 6 5 5 4 5 6
15 12 12 11 16 4 5 8 6 3 12 9 7 6 9 7 15 14 13 12 16 20 19 17 21 18 17 20 18 15 14 14 13 13 12 13 11 10 9 9 9 9 8 7 7 6 7 6 7
13 11 3 6 6 2 4 13 8 9 8 8 10 9 8 9 8 9 20 17 18 17 19 20 21 20 23 15 19 18 17 12 13 13 12 13 13 11 10 9 8 8 8 8 8 8 8 8 8
6 4 9 5 10 4 8 5 9 16 11 10 9 8 9 9 11 13 12 13 21 20 20 20 22 22 23 24 18 18 18 17 16 14 15 14 13 13 12 10 9 9 10 9 9 9 10 10 10
10 14 13 11 11 10 9 10 10 5 5 4 5 8 8 9 10 16 11 13 14 16 19 19 21 20 18 23 20 23 17 20 15 15 13 14 13 14 13 11 10 10 11 11 11 12 11 12 12
7 9 11 14 14 12 17 12 11 10 8 7 8 9 9 9 14 24 17 14 14 16 17 20 21 20 19 22 22 22 21 18 16 15 12 11 11 12 14 13 11 11 13 13 12 13 13 14 14
3 9 11 11 10 12 8 11 12 11 10 11 10 9 9 8 8 18 19 17 17 18 16 21 22 22 21 24 23 22 23 19 20 17 15 16 13 12 12 11 11 12 12 13 13 13 14 15 12
7 11 6 5 7 4 3 7 11 13 12 9 10 8 7 8 4 10 19 22 19 19 18 17 21 20 23 21 20 17 18 15 17 15 14 12 10 10 12 13 15 16 15 15 14 13 13 14 14
6 2 7 5 3 3 8 4 8 17 13 12 9 9 9 9 9 8 13 21 20 18 20 19 15 19 21 23 21 16 16 17 13 12 11 11 13 14 15 15 16 18 17 17 18 17 16 13 15
2 6 7 3 5 6 3 3 7 2 15 15 13 10 10 10 10 8 14 21 21 15 18 20 17 16 16 19 20 18 14 10 14 17 17 11 9 9 9 9 9 11 10 11 15 17 17 17 18
5 1 3 3 1 1 7 6 5 5 6 5 8 12 12 10 10 7 19 21 18 17 16 15 16 18 17 15 18 14 13 13 12 11 12 9 8 9 6 7 8 8 8 8 8 10 11 15 17
6 5 2 1 2 5 4 6 9 7 4 2 4 4 4 10 10 9 9 14 19 17 15 16 17 16 16 16 16 18 15 13 11 10 8 10 8 5 6 6 5 6 7 7 8 8 8 11 13
6 6 3 4 4 4 8 6 5 6 5 6 6 4 4 6 3 10 10 18 24 23 18 17 18 16 15 17 17 16 14 12 11 9 10 10 8 7 6 5 4 6 7 6 6 5 8 10 11
6 5 4 2 6 1 5 6 7 8 5 2 2 1 5 4 2 3 7 10 24 26 22 19 17 16 15 14 15 16 14 12 12 10 8 7 7 7 5 5 5 7 8 7 7 6 8 8 9
2 2 2 1 2 3 4 6 5 1 7 7 4 4 2 3 2 4 6 5 16 21 20 18 15 18 16 15 13 15 15 11 9 9 10 8 5 5 5 5 6 6 7 7 6 5 8 8 9
5 2 4 1 4 2 1 2 5 6 9 8 8 6 6 5 1 2 6 7 12 19 23 22 20 17 18 16 13 10 10 11 13 10 6 6 6 5 4 5 5 5 6 6 4 4 7 6 8
8 9 6 3 4 3 3 5 2 8 8 6 8 6 6 4 3 1 7 11 9 18 21 24 22 17 17 19 19 14 13 12 9 8 7 5 4 4 4 5 4 5 6 4 4 4 6 6 7
Wind_Direction
219 223 252 179 202 231 224 245 255 147 104 52 40 50 96 65 336 127 144 132 137 142 151 148 146 142 138 135 126 117 114 106 106 98 90 89 91 90 91 92 92 98 96 94 93 91 90 88 86
228 226 212 258 228 209 229 227 151 338 60 40 54 316 49 62 35 119 133 130 137 142 149 151 150 142 143 137 133 130 122 117 111 109 98 92 91 93 96 98 100 102 101 98 93 92 91 89 88
226 228 192 204 216 225 219 208 144 86 52 338 117 284 31 60 130 130 129 137 136 141 146 153 151 148 145 146 134 125 120 124 126 115 110 98 93 93 97 102 104 105 101 98 94 93 91 90 91
219 204 281 228 208 227 242 207 143 100 84 249 142 101 81 8 82 130 135 136 135 144 151 152 156 154 150 143 131 124 121 124 133 125 118 101 94 94 98 102 106 108 106 100 94 96 98 96 97
230 212 227 210 240 210 156 54 69 154 150 199 307 90 82 53 76 131 142 139 137 147 151 156 159 155 149 140 132 123 115 125 137 135 124 122 103 97 95 100 109 112 107 102 96 94 97 99 104
211 211 211 205 214 230 97 118 269 308 145 86 76 109 78 36 112 147 145 142 138 138 144 154 157 154 148 141 140 129 118 125 136 137 125 137 108 101 99 105 111 114 111 105 101 98 101 102 107
211 209 218 219 198 164 111 130 183 319 177 44 326 114 100 58 47 132 151 146 127 132 142 149 154 155 150 148 147 136 131 131 136 139 136 140 129 117 113 112 114 119 116 116 109 105 101 102 104
224 268 231 221 212 126 123 136 49 22 57 333 1 102 133 152 149 127 140 112 128 136 139 150 154 155 152 150 151 144 138 140 139 146 143 150 143 134 124 123 119 121 121 125 124 122 116 105 100
248 207 217 234 189 167 132 107 40 296 94 55 62 66 110 136 144 125 161 131 133 144 147 154 155 154 155 159 154 146 144 146 141 144 154 156 153 135 140 147 127 127 127 131 138 143 145 129 94
197 206 219 233 6 186 143 143 153 135 132 98 103 91 112 132 134 131 179 132 125 144 154 160 161 159 160 164 162 147 148 154 149 164 158 157 156 150 174 171 158 144 137 136 142 153 161 114 109
196 226 235 215 75 358 44 177 165 155 137 114 99 114 115 134 139 149 168 159 157 146 158 177 165 163 168 165 161 170 154 160 165 167 157 168 172 164 184 194 207 167 140 126 53 73 86 101 355
315 245 264 30 60 11 281 120 159 233 114 108 117 122 123 141 152 165 165 180 191 163 158 163 165 176 181 183 185 180 162 183 181 185 170 177 182 186 179 210 160 173 214 209 266 284 267 231 237
230 289 276 305 132 155 281 285 136 103 112 123 125 129 138 138 148 149 183 175 189 191 176 162 174 172 172 178 193 188 178 174 183 187 189 189 189 188 190 191 193 197 202 196 220 223 224 248 247
195 230 286 280 253 210 264 167 340 135 139 133 140 128 136 163 169 170 167 176 197 188 186 194 178 185 183 188 193 198 186 179 189 187 194 195 196 194 191 196 199 200 206 196 202 229 229 241 253
149 190 250 189 239 133 272 249 188 228 152 155 169 127 130 153 165 185 189 190 191 190 190 184 192 196 197 195 198 213 185 191 195 186 197 204 206 198 204 198 205 208 213 201 213 217 232 234 245
143 190 139 315 195 137 251 246 180 238 160 203 185 173 164 158 167 175 189 202 191 185 197 199 204 202 206 201 206 211 205 215 206 194 201 201 208 209 206 207 205 207 209 218 215 225 236 244 250
210 156 185 214 249 165 224 227 231 199 206 188 218 214 178 158 175 170 186 200 181 189 189 197 201 210 212 211 212 209 206 211 211 203 198 199 203 207 205 209 213 213 217 225 234 235 241 246 255
197 215 193 185 201 231 215 250 285 267 156 187 216 255 250 176 170 163 170 184 200 193 196 191 201 202 206 209 210 208 205 214 213 196 200 198 203 207 213 215 221 225 227 225 236 245 246 252 259
213 213 240 194 169 209 221 212 215 242 169 206 229 235 244 239 170 159 171 188 176 194 185 192 197 205 204 200 200 209 212 202 204 205 208 213 208 212 210 217 231 236 239 247 244 249 249 254 257
241 223 229 75 164 181 235 223 240 249 216 184 204 233 249 242 176 152 165 184 179 181 191 191 196 196 197 203 204 209 206 206 210 209 209 215 208 217 227 227 233 243 248 246 252 254 261 257 256
224 218 170 167 184 218 301 284 254 228 240 234 203 196 240 250 244 169 163 177 178 179 197 200 199 201 203 200 207 201 202 200 216 218 222 219 211 214 226 235 237 241 248 252 253 257 261 265 261
223 14 66 320 157 225 163 270 219 229 224 218 220 199 212 244 259 181 186 169 177 187 181 200 208 204 203 200 209 208 206 202 205 203 202 224 220 217 226 237 243 250 253 255 257 258 261 264 259
304 125 153 241 260 326 251 264 270 232 218 219 210 211 207 211 211 243 182 164 169 170 175 179 184 198 208 201 201 202 209 210 195 183 180 206 238 231 234 245 247 247 247 250 258 261 262 260 262
92 253 141 112 354 293 230 214 265 255 236 193 195 202 206 206 197 220 155 157 162 178 191 185 189 189 204 206 193 190 200 183 170 173 171 184 228 251 259 261 260 261 258 262 267 262 256 259 260
216 177 104 319 217 226 218 223 248 285 349 124 128 26 242 191 183 190 151 148 157 175 186 185 185 183 183 191 183 173 184 179 179 174 162 183 206 242 263 273 260 259 263 267 266 265 264 262 262
212 213 150 224 208 230 196 238 251 255 28 19 171 156 46 346 322 175 166 173 169 179 186 190 189 176 173 170 164 166 170 171 167 170 171 172 169 192 241 262 270 275 275 273 271 279 278 260 255
220 225 303 319 248 327 192 253 297 260 170 121 175 160 179 213 59 115 107 180 158 171 183 193 187 174 171 169 163 156 156 165 169 169 175 184 194 213 247 263 269 275 281 278 274 257 260 269 263
296 19 168 203 215 230 263 252 236 170 178 176 118 106 148 100 335 171 129 181 167 174 179 170 188 167 165 168 169 160 158 165 170 179 176 178 209 227 239 262 273 279 285 288 278 256 245 251 259
154 147 228 267 249 183 293 268 316 100 86 82 74 60 49 31 357 169 147 158 190 169 169 162 166 170 172 168 171 160 161 177 180 178 176 193 208 223 233 251 256 266 275 277 277 250 233 229 237
240 198 192 183 183 230 133 273 60 98 91 75 123 122 113 94 20 20 145 146 141 161 165 167 162 176 181 184 164 170 179 177 172 166 179 183 207 236 238 243 245 260 269 263 232 232 242 215 208